Location: Gniazdowice
(50.2124°N, 20.2673°E)
Time: 01:58:40
(UTC+00:00)

Cosmos 2181 Rocket - Pass Details

Date: 23 May 2024
Orbit: 951 x 1014 km, 82.9° (Epoch: 18 June)

Event Time Altitude Azimuth Distance (km) Brightness Sun altitude
Rises 01:48:38 0° 346° (NNW) 3,746 7.5 -7.3°
Reaches altitude 10° 01:51:17 10° 341° (NNW) 2,784 6.8 -7.0°
Maximum altitude 01:57:19 46° 271° (W) 1,312 4.4 -6.4°
Drops below altitude 10° 02:03:13 10° 200° (SSW) 2,725 5.8 -5.7°
Sets 02:05:47 0° 194° (SSW) 3,659 6.5 -5.4°
Enters shadow 02:05:56 - 194° (SSW) 3,714 6.5 -5.3°
